Starlink 34050

operational
NORAD ID: 64331 Int'l Des: 2025-124 Owner: SPXS Country: US Constellation: starlink
LEOCIRCULAR

关于 Starlink 34050

正在加载描述...

实时位置

正在加载3D地球...

即将过境

高度历史

Altitude vs Time

uPlot chart will show altitude changes over time

两行轨道根数

1 64331U 25124Q 26095.06441915 .00018571 00000-0 68203-3 0 9997
2 64331 43.0019 332.8020 0001592 293.6990 66.3695 15.27611206 46870
Epoch: Apr 5, 2026 • Age: 20 hours

当前状态

高度 485.1 km
速度 7.62 km/s
星下点 -11.83°S, 8.34°E
发射日期 Jun 10, 2025
运行时间 0.8 years
类型 internet

技术详情

分类 Payload
质量 575.00 kg
干质量 530.00 kg
总质量 575.00 kg
长度 0.30 m
直径 4.10 m
跨度 29.00 m
形状 Box + pan
制造商 SPXS
平台类型 Starlink V2MO
阶段状态 In Orbit
所有者/国家 SPXS/US

大型星座

Loading constellations...